Home > Weather > Neubrandenburg > Past weeks

Flag for Germany Weather for the Past 2 Weeks in Neubrandenburg, Mecklenburg-Western Pomerania, Germany

Now
55 °F

Sunny.


Feels Like: 52 °F
Forecast: 44 / 62 °F
Wind: 12 mph from South

Location: Heringsdorf

Current Time: Apr 29, 2016 at 6:20:30 PM

Latest Report: Apr 29, 2016 at 4:50 PM


Visibility: 10 mi

Pressure: 30.09 "Hg

Humidity: 38%

Dew Point: 30 °F

Location of NeubrandenburgLocation

Historic Weather in Neubrandenburg — Graph

°F

Neubrandenburg Temperature Yesterday

Maximum temperature yesterday: 46 °F (at 1:50 PM)
Minimum temperature yesterday: 41 °F (at 9:20 AM)
Average temperature yesterday: 44 °F

High & Low Weather Summary for the Past Weeks

 TemperatureHumidityPressure
High57 °F (Apr 16, 12:20 PM)93% (Apr 15, 8:50 AM)30.30 "Hg (Apr 15, 8:50 AM)
Low36 °F (Apr 26, 8:20 AM)35% (Apr 22, 1:50 PM)29.47 "Hg (Apr 26, 8:20 AM)
Average48 °F62%29.84 "Hg
* Reported Apr 14 4:20 PM — Apr 29 4:50 PM, Neubrandenburg, Weather by CustomWeather, © 2016

Note: Actual official high and low records may vary slightly from our data, if they occured in-between our weather recording intervals... More about our weather records

Advertising

Neubrandenburg Weather History for the Previous 24 Hours

Scroll right to see more
 ConditionsComfort  
Time TempWeatherWind HumidityBarometerVisibility
4:50 PM
Fri, Apr 29
55 °FSunny.12 mph38%30.09 "Hg10 mi
4:20 PM55 °FSunny.14 mph36%30.09 "Hg10 mi
3:50 PM55 °FSunny.13 mph41%30.09 "Hg10 mi
3:20 PM54 °FSunny.13 mph44%30.09 "Hg10 mi
2:50 PM54 °FPassing clouds.13 mph44%30.09 "HgN/A
2:20 PM55 °FPassing clouds.13 mph38%30.07 "HgN/A
1:50 PM54 °FSunny.13 mph44%30.09 "Hg10 mi
1:20 PM55 °FSunny.15 mph38%30.07 "Hg10 mi
12:50 PM54 °FSunny.16 mph41%30.07 "Hg10 mi
12:20 PM55 °FSunny.14 mph41%30.09 "Hg10 mi
11:50 AM54 °FSunny.14 mph47%30.09 "Hg10 mi
11:20 AM52 °FSunny.15 mph54%30.09 "Hg10 mi
10:50 AM52 °FSunny.13 mph50%30.07 "Hg10 mi
9:50 AM48 °FSunny.10 mph62%30.07 "Hg10 mi
9:20 AM46 °FSunny.8 mph71%30.07 "Hg10 mi
8:50 AM43 °FSunny.8 mph81%30.07 "Hg10 mi
8:20 AM41 °FSunny.7 mph81%30.07 "Hg10 mi
Weather by CustomWeather, © 2016

See weather overviewHow to use our weather pages